www.pogodaiklimat.ru

Погода и климат >> Архив погоды >> Россия >> Забайкальский край >> Усть-Каренга


ПОГОДА в Усть-Каренге

  • Прогноз погоды в Усть-Каренге
  • Монитор погоды в Усть-Каренге
  • Климат города

АРХИВ ПОГОДЫ в Усть-Каренге

Время (UTC), дата Ветер
(напр.,м/с)
 
Видим.   Явления Облачность Т
(С)
Тd
(С)
f
(%)
Тe
(С)
Тes
(С)
Комфортность P
(гПа)
Po
(гПа)
Тmin
(С)
Tmax
(С)
R
(мм)
R24
(мм)
S
(см)
21 16.06 штиль 0 200 м туман ?/? +2.5 +2.2 98 +1 +1 1010.8 929.0
00 17.06 ЮЗ 1 50 км в посл. час туман 3/0
[Ac lent]
+8.8 +8.3 97 +8 +14 1008.6 929.0 +2.0
03 17.06 СВ 2 50 км 6/4 600 м
[Cb cap Ci sp]
+20.0 +5.2 38 +21 +30 комфорт 1003.6 927.2
09 17.06 ЮЗ 2 50 км 6/4 600 м
[Cb cap Ci fib]
+21.9 +6.7 37 +23 +26 комфорт 1001.0 925.2
12 17.06 СЗ 2 50 км 6 баллов +16.8 +8.5 58 +17 +17 1004.0 926.7 +22.8 0.0
15 17.06 штиль 0 н/о 8/6 1000 м
[Cb cap Ci fib]
+9.8 +7.8 87 +9 +9 1005.4 926.4
18 17.06 В 1 н/о 3/3 1000 м
[Sc Ci fib]
+7.0 +6.1 94 +6 +6 1006.1 926.0
21 17.06 В 1 50 км 4/3 1000 м
[Sc Ci sp]
+3.8 +3.3 97 +2 +3 1007.9 926.7
00 18.06 штиль 0 50 км 8/0
[Ac und]
+12.9 +7.7 71 +13 +17 1005.1 926.9 +3.5
03 18.06 СЗ 3 50 км 9/5 600 м
[Cb cap Ac und]
+19.0 +7.5 47 +20 +23 1003.2 926.6
06 18.06 З 4
{10}
50 км 6/5 600 м
[Cb cap Ci sp]
+21.6 +6.3 37 +22 +27 комфорт 1001.4 925.4
09 18.06 СВ 5 50 км 4 балла +20.8 +7.1 41 +22 +24 комфорт 1003.0 926.7
12 18.06 СЗ 1
{10}
50 км {гроза, ливн. осадки} 3/3 1000 м
[Sc diur, vesp]
+15.0 +9.0 67 +16 +16 1006.1 928.4 +21.9 0.5
15 18.06 ЮВ 2 н/о 3/3 1000 м
[Sc]
+7.0 +5.2 88 +5 +5 1009.7 929.5
00 19.06 ЮВ 1 50 км 9/5 1000 м
[Sc Ac trans]
+7.1 +4.6 84 +6 +8 1010.8 930.5 +1.8
03 19.06 С 3 50 км 4/3 1000 м
[Cu med, cong Ac trans]
+19.2 +6.2 43 +20 +28 1006.0 929.3
09 19.06 СЗ 4
{11}
50 км 3/3 1000 м
[Cb cap]
+21.7 +5.2 34 +22 +25 комфорт 1004.2 928.0
12 19.06 СЗ 1 50 км 2 балла +19.1 +6.6 44 +21 +21 комфорт 1006.2 929.3 +24.0
15 19.06 ЮВ 2 н/о ясно +8.8 +5.8 81 +7 +7 1008.9 929.3
21 19.06 штиль 0 50 км ясно +2.4 +2.1 98 +1 +2 1011.8 929.9
00 20.06 ЮЗ 1 50 км {туман} 8/0
[Ac As]
+11.7 +7.2 74 +12 +15 1008.3 929.5 +2.1
03 20.06 В 1 50 км 3/3 1000 м
[Cu med, cong Ci]
+23.8 +9.4 40 +25 +37 комфорт 1002.5 927.3
06 20.06 СВ 3 50 км 8/5 1000 м
[Cb cap Ci]
+24.5 +5.2 29 +24 +29 комфорт 1001.2 925.9
09 20.06 З 2 50 км 6/4 1000 м
[Cb cap Ci fib]
+27.0 +6.5 27 +26 +29 жарко 998.8 924.4
12 20.06 З 1 50 км 7 баллов +21.3 +9.5 47 +23 +23 комфорт 1001.3 925.3 +27.4
15 20.06 штиль 0 н/о 4/3 1000 м
[Sc Ci sp]
+11.4 +8.7 83 +11 +11 1003.9 925.5
18 20.06 В 1 н/о 4/1 600 м
[Sc Ac lent Ci fib]
+7.9 +6.8 93 +7 +7 1005.0 925.3
21 20.06 В 1 700 м туман 3/0
[Ci]
+5.1 +4.6 97 +4 +4 1005.5 924.9
00 21.06 СЗ 1 50 км {туман} 3/0
[Ac trans Ci sp]
+14.6 +8.7 68 +15 +22 1002.2 924.7 +3.8
03 21.06 штиль 0 50 км 3/0
[Ci sp]
+24.7 +10.7 41 +26 +45 жарко 998.5 923.2
06 21.06 З 2 50 км 4/4 1000 м
[Cu hum]
+28.3 +5.2 23 +27 +36 жарко 994.8 921.0
09 21.06 З 2 50 км 6/6 600 м
[Cu med, cong]
+27.9 +5.1 23 +27 +29 жарко 993.7 919.8
12 21.06 СВ 5-10
{11}
50 км {ливн. осадки} 8/6 600 м
[Cb cap Ac cuf]
+22.5 +7.3 38 +23 +23 комфорт 996.4 921.3 +29.5 0.0
15 21.06 З 1
{11}
н/о 8/8 600 м
[Cb cap]
+13.8 +9.1 73 +14 +14 1000.6 923.0
18 21.06 штиль 0 н/о 10/3 600 м
[Cb cap]
+9.1 +6.1 81 +8 +8 1002.4 923.2
21 21.06 штиль 0 50 км 5/3 1000 м
[Sc Ci fib]
+6.7 +0.6 65 +6 +7 1004.1 924.1
00 22.06 штиль 0 50 км 3/0
[Ac lent]
+16.9 +9.8 63 +17 +24 1001.5 924.6 +6.1
03 22.06 СЗ 4 50 км 8/5 600 м
[Cu med, cong Ci sp]
+24.3 +9.3 39 +25 +30 комфорт 998.7 923.9
09 22.06 С 3 20 км дым 7 баллов +25.5 +8.9 35 +26 +27 жарко 998.8 924.0
12 22.06 СЗ 2 20 км дым 8/5 1000 м
[Sc Ci sp]
+22.2 +8.1 40 +23 +23 комфорт 999.9 924.5 +26.5
15 22.06 штиль 0 н/о дым 5/3 1000 м
[Sc Ci sp]
+12.2 +9.1 81 +12 +12 1004.1 925.8
18 22.06 штиль 0 н/о дым 6/4 1000 м
[Sc Ci sp]
+11.0 +9.8 92 +10 +10 1004.9 926.0
00 23.06 З 1 20 км дым 10/3 1000 м
[Sc Ac trans Ci sp]
+16.0 +10.0 68 +17 +20 1004.7 927.4 +7.5
03 23.06 СЗ 1 20 км дым 4/0
[Ac trans Ci sp]
+23.3 +10.3 44 +25 +40 комфорт 1001.1 925.9
06 23.06 ЮЗ 1 20 км дым 8/5 1000 м
[Cu med, cong Ac trans Ci sp]
+26.6 +10.4 36 +27 +33 жарко 998.7 924.3
09 23.06 СВ 2 10 км слабый ливневой дождь 10/8 600 м
[Cb cap Ac und]
+16.8 +15.1 90 +17 +17 1002.7 925.7
12 23.06 штиль 0 20 км слабый ливневой дождь 10/8 600 м
[Cb cap Ac und]
+14.8 +14.0 95 +14 +14 1003.7 926.2 +27.3 2
15 23.06 СВ 2 10 км слабый ливневой дождь 10/8 600 м
[Cb cap Ac und]
+14.3 +13.8 97 +14 +14 1004.2 926.6

 

Местоположение метеостанции Усть-Каренга (Забайкальский край, Россия): широта 54.43 долгота 116.50 высота над уровнем моря 688 м.

В архиве по умолчанию представлена погода в Усть-Каренге за последнюю неделю. Архивные данные за месяц целиком и за предыдущие месяцы, начиная с января 2011 года, Вы можете получить, выбрав интересующий диапазон дат из раскрывающегося списка и нажав кнопку "Ввод!".


*Определитесь, кто Вы:
робот инопланетянин человек

Внимание! Время в таблицах - всемирное. Для получения местного времени необходимо прибавить поправку, которая в Усть-Каренге равна 9 ч.

Смотрите также архив погоды в соседних городах и на ближайших метеорологических станциях:

Погода в Тунгокочене (Забайкальский край, Россия) (116 км)
Погода в Ксеньевской (Забайкальский край, Россия) (174 км)
Погода в Багдарине (Бурятия, Россия) (194 км)
Погода в Чернышевске (Забайкальский край, Россия) (214 км)
Погода в Усугли (Забайкальский край, Россия) (219 км)
Погода в Уаките (Бурятия, Россия) (219 км)
Погода в Тупике (Забайкальский край, Россия) (220 км)
Погода в Троицком Прииске (Бурятия, Россия) (220 км)
Погода в Могоче (Забайкальский край, Россия) (222 км)
Погода в Баунте (Бурятия, Россия) (237 км)

Пояснения к столбцам:

Ветер - указаны скорость ветра в м/с - средняя за 10 мин, порывы в срок и между сроками (в фигурных скобках) и направление, откуда дует ветер: С - северный, СВ - северо-восточный, В - восточный, ЮВ - юго-восточный, Ю - южный, ЮЗ - юго-западный, З - западный, СЗ - северо-западный.
Видимость - горизонтальная дальность видимости в метрах или километрах. При видимости от 1 до 10 км при отсутствии осадков обычно наблюдается дымка, при ухудшении видимости до 1 км и менее - туман. В сухую погоду видимость может ухудшаться дымом, пылью или мглою.
Явления - указаны атмосферные явления, наблюдавшиеся в срок или в последний час перед сроком; фигурными скобками обозначены явления, наблюдавшиеся между сроками (за 1-3 часа до срока); квадратными скобками обозначены град или гололедные отложения с указанием их диаметра в мм.
Облачность - указаны через наклонную черту общая и нижняя облачность в баллах и высота нижней границы облаков в метрах; квадратными скобками обозначены формы облаков: Ci - перистые, Cs - перисто-слоистые, Cc - перисто-кучевые, Ac - высококучевые, As - высокослоистые, Sc - слоисто-кучевые, Ns - слоисто-дождевые, Cu - кучевые, Cb - кучево-дождевые. Подробнее классификацию облаков см. в Атласе облаков (PDF).
T - Температура воздуха - температура, измеренная на высоте 2 м над землей.
Td - Температура точки росы - температура, при понижении до которой содержащийся в воздухе водяной пар достигнет насыщения.
f - Относительная влажность воздуха - влажноcть воздуха, измеренная на высоте 2 м над землей.
Te - Эффективная температура - температура, которую ощущает одетый по сезону человек в тени. Характеристика душности погоды. При расчете учитывается влияние влажности воздуха и скорости ветра на теплоощущения человека.
Tes - Эффективная температура на солнце - температура, которую ощущает человек, с поправкой на солнечный нагрев. Характеристика знойности погоды. Зависит от высоты солнца над горизонтом, облачности и скорости ветра. Ночью, в пасмурную погоду, а также при ветре 12 м/с и более поправка равна нулю.
P - Атмосферное давление - приведенное к уровню моря атмосферное давление.
Po - Атмосферное давление - измеренное на уровне метеостанции атмосферное давление.
Tmin - Минимальная температура - минимум температуры воздуха на высоте 2 м над землей.
Tmax - Максимальная температура - максимум температуры воздуха на высоте 2 м над землей.
R - Количество осадков - Количество выпавших осадков за период времени, мм. При наведении курсора мыши на число - период времени, за который выпало указанное количество осадков.
R24 - Количество осадков - Количество выпавших осадков за 24 часа, мм.
S - Снежный покров - Высота снежного покрова, см. При наведении курсора мыши на число - состояние снежного покрова и степень покрытия местности в баллах.